User: anonymous   Login
Location: Star Hoppers Observatory
(42.7905°N, 83.6127°W)
Time: 00:24:30
(UTC-04:00)
Language:

NOSS 3-1 (A) - Orbit

View from above orbital plane
View from above orbital plane
View from above satellite
View from above satellite

Ground track
Ground track

The orbit data is extracted from the following two-line orbital elements,

1 26905U 01040A   15144.87559772 0.00000000  00000-0  00000-0 0    05
2 26905  63.4260 158.4385 0302000 357.8498   2.1502 13.40720301    09
Epoch (UTC): 24 May 2015 21:00:51
Eccentricity: 0.0302000
inclination: 63.4260°
perigee height: 880 km
apogee height: 1332 km
right ascension of ascending node: 158.4385°
argument of perigee: 357.8498°
revolutions per day: 13.40720301
mean anomaly at epoch: 2.1502°
orbit number at epoch: 0

The dashed part of the orbit path shows where the satellite is in the earth's shadow,  

DLR